Location: *
(2.7500°S, 66.6833°W)
Time: 04:16:27
(UTC+00:00)

Cosmos 2151 - Pass Details

Date: 24 May 2024
Orbit: 570 x 589 km, 82.5° (Epoch: 23 June)

Event Time Altitude Azimuth Distance (km) Brightness Sun altitude
Rises 23:44:04 0° 353° (N) 2,763 6.8 -19.7°
Reaches altitude 10° 23:46:14 10° 351° (N) 1,872 5.9 -20.2°
Maximum altitude 23:50:21 73° 266° (W) 604 3.0 -21.2°
Enters shadow 23:52:31 27° 186° (S) 1,112 4.2 -21.7°
